Location: Arrien
(43.3167°N, 0.1500°W)
Time: 22:17:31
(UTC+00:00)

Lacrosse 4 Rocket - Pass Details

Date: 15 October 2021
Orbit: 537 x 619 km, 68.0° (Epoch: 03 December)

Event Time Altitude Azimuth Distance (km) Brightness Sun altitude
Rises 20:05:03 0° 337° (NNW) 2,794 5.5 -31.0°
Reaches altitude 10° 20:07:23 10° 345° (NNW) 1,906 4.4 -31.4°
Enters shadow 20:07:50 13° 348° (NNW) 1,743 4.2 -31.4°
